User: anonymous   Login
Location: Unspecified
(0.0000°N, 0.0000°E)
Time: 22:13:04
(UTC+00:00)
Language:

KUIPER-00123 - Orbit

View from above orbital plane
View from above orbital plane
View from above satellite
View from above satellite

Ground track
Ground track

The orbit is defined by the following mean orbital elements,

1 65952U          26144.66374469 +.00000000 +00000-0 +45221-3 0 00009
2 65952  51.8999  27.1229 0000948  90.1349 269.9722 14.79927228    08
Epoch (UTC): 24 May 2026 15:55:47
Eccentricity: 0.0000948
inclination: 51.8999°
perigee height: 629 km
apogee height: 630 km
right ascension of ascending node: 27.1229°
argument of perigee: 90.1349°
revolutions per day: 14.79927228
mean anomaly at epoch: 269.9722°

The dashed part of the orbit path shows where the satellite is in the earth's shadow,  

DLR